{"data":{"norad_id":53838,"intl_designator":"2022-114W","name":"STARLINK-4773","alt_names":[],"object_type":"PAYLOAD","status":"ACTIVE","operator":null,"country":"US","launch_date":"2022-09-19","launch_site_code":"AFETR","launch_vehicle":null,"mission":null,"orbit_class":"UNKNOWN","rcs_meters":null,"size_class":null,"mass_kg":null,"dimensions":null,"purposes":["comms"],"wikipedia_slug":null,"has_3d_model":false,"image_url":null,"decayed_at":null,"tle_current":{"epoch":"2026-09-20T06:22:57.351648Z","epoch_age_seconds":104547,"freshness":"FRESH","line1":"1 53838U 22114W   26263.26594157  .00000150  00000+0  27519-4 0  9998","line2":"2 53838  53.1606 140.1426 0001571  85.0294 275.0877 15.08832568222345","mean_motion":15.08832568,"eccentricity":0.0001571,"inclination_deg":53.1606,"raan_deg":140.1426,"arg_perigee_deg":85.0294,"mean_anomaly_deg":275.0877,"bstar":2.7519e-5,"rev_number":22234,"period_min":95.43802477095,"perigee_km":538.67930313022,"apogee_km":540.85290828604,"semimajor_km":6917.9031057081,"source":"CELESTRAK","updated_at":"2026-09-21T09:00:33.020288Z"}}}